FW7730 Weather Reports


time (UTC)temp
F
wind
direction
speed
knots
gust
knots
rain 1hr
in
rain 24hr
in
rain mn
in
humidity
%
barometer
mb
20260505052541 44 274 2.6 7.0 0.00 0.26 0.26 84 1012.9
20260505052042 44 276 2.6 6.1 0.00 0.26 0.26 84 1012.8
20260505051549 44 296 0.9 5.2 0.00 0.26 0.26 84 1012.9
20260505051042 45 260 0.0 2.6 0.00 0.26 0.26 83 1012.8
20260505050541 45 0 0.0 2.6 0.00 0.26 0.26 81 1012.8
20260505041548 46 242 1.7 7.0 0.01 0.26 0.26 79 1013.2
20260505041041 46 211 1.7 9.6 0.01 0.26 0.26 79 1013.2
20260505040543 46 246 1.7 9.6 0.01 0.26 0.26 79 1013.2
20260505040053 46 284 2.6 7.0 0.01 0.26 0.26 79 1013.1
20260505035542 46 254 1.7 10.4 0.02 0.26 0.26 80 1013.1
20260505035041 46 286 3.5 12.2 0.05 0.26 0.26 80 1013.0
20260505034548 46 241 3.5 12.2 0.08 0.26 0.26 81 1013.1
20260505034041 46 246 5.2 12.2 0.10 0.26 0.26 81 1013.1
20260505033541 46 280 4.3 10.4 0.14 0.26 0.26 83 1013.1
20260505033051 46 214 3.5 7.8 0.17 0.26 0.26 83 1013.2
20260505032541 46 234 1.7 9.6 0.19 0.26 0.26 84 1013.3
20260505032043 46 275 4.3 9.6 0.19 0.25 0.25 84 1013.3
20260505031547 46 304 4.3 8.7 0.20 0.25 0.25 85 1013.3
20260505031041 46 315 0.9 7.8 0.20 0.25 0.25 86 1013.3
20260505030543 46 311 2.6 7.8 0.21 0.25 0.25 86 1013.2
20260505030049 46 286 1.7 7.8 0.21 0.25 0.25 86 1013.3
20260505025541 46 297 3.5 7.8 0.20 0.24 0.24 85 1013.1
20260505025043 46 278 3.5 7.8 0.17 0.21 0.21 85 1013.1
20260505024606 47 257 2.6 11.3 0.14 0.18 0.18 84 1013.0
20260505024044 47 287 3.5 11.3 0.12 0.16 0.16 82 1013.1
20260505023541 48 308 5.2 9.6 0.08 0.12 0.12 80 1012.9
20260505023050 48 288 4.3 8.7 0.05 0.09 0.09 79 1012.9
20260505022541 49 271 3.5 7.8 0.03 0.07 0.07 77 1012.7
20260505022041 49 242 3.5 7.8 0.02 0.06 0.06 75 1012.6
20260505021603 50 288 2.6 7.0 0.01 0.05 0.05 72 1012.4
20260505021041 51 277 2.6 7.0 0.01 0.05 0.05 70 1012.3
20260505020541 51 302 0.9 4.3 0.00 0.04 0.04 69 1012.2
20260505020049 51 0 0.0 0.0 0.00 0.04 0.04 68 1012.2
20260505015541 52 0 0.0 3.5 0.00 0.04 0.04 66 1012.3
20260505015041 52 0 0.0 5.2 0.00 0.04 0.04 64 1012.0
20260505014549 52 0 0.0 7.0 0.00 0.04 0.04 63 1012.0
20260505014041 52 309 1.7 7.0 0.00 0.04 0.04 63 1011.8
20260505013542 52 343 1.7 8.7 0.00 0.04 0.04 64 1011.7
20260505013049 52 321 3.5 8.7 0.00 0.04 0.04 64 1011.6
20260505012541 52 340 2.6 11.3 0.00 0.04 0.04 64 1011.5
20260505012041 52 355 2.6 11.3 0.00 0.04 0.04 63 1011.7
20260505011555 52 355 3.5 12.2 0.00 0.04 0.04 63 1011.6
20260505011041 52 352 6.1 12.2 0.00 0.04 0.04 63 1011.4
20260505010541 53 351 5.2 14.8 0.00 0.04 0.04 62 1011.6
20260505010045 54 360 6.1 14.8 0.00 0.04 0.04 58 1011.5
20260505005541 56 59 2.6 14.8 0.00 0.04 0.04 56 1011.3
20260505005041 56 57 1.7 5.2 0.00 0.04 0.04 53 1011.4
20260505004548 56 11 0.9 3.5 0.00 0.04 0.04 52 1011.4
20260505004040 56 5 0.9 3.5 0.00 0.04 0.04 52 1011.4
20260505003541 56 5 0.0 3.5 0.00 0.04 0.04 54 1011.3
20260505003046 56 5 0.9 3.5 0.00 0.04 0.04 55 1011.3
20260505002540 56 0 0.0 3.5 0.00 0.04 0.04 56 1011.3
20260505002040 56 0 0.9 3.5 0.00 0.04 0.04 55 1011.4
20260505001549 56 0 1.7 3.5 0.00 0.04 0.04 56 1011.4
20260505001042 56 0 0.9 4.3 0.00 0.04 0.04 59 1011.3
20260505000541 56 339 0.9 4.3 0.00 0.04 0.04 61 1011.3
20260505000049 56 333 1.7 4.3 0.00 0.04 0.04 62 1011.2
20260504235541 55 26 1.7 5.2 0.00 0.04 0.04 62 1011.2
20260504235042 55 25 0.0 6.1 0.00 0.04 0.04 63 1011.1
20260504234548 56 73 1.7 6.1 0.00 0.04 0.04 59 1011.2
20260504234045 56 44 0.0 2.6 0.00 0.04 0.04 53 1011.3
20260504233542 56 0 0.0 2.6 0.01 0.04 0.04 53 1011.3
20260504233057 56 0 0.0 1.7 0.01 0.04 0.04 54 1011.3
20260504232614 56 0 0.0 2.6 0.01 0.04 0.04 51 1011.1
20260504232041 56 0 0.0 2.6 0.01 0.04 0.04 61 1011.1
20260504231551 56 22 0.0 2.6 0.01 0.04 0.04 57 1011.1
20260504231041 56 0 0.0 2.6 0.01 0.04 0.04 58 1011.1
20260504230541 56 345 0.0 1.7 0.01 0.04 0.04 55 1010.9
20260504230048 55 0 0.0 3.5 0.01 0.04 0.04 53 1010.9
20260504225541 55 0 0.0 3.5 0.01 0.04 0.04 60 1011.2
20260504225041 54 342 1.7 6.1 0.01 0.04 0.04 62 1011.2
20260504224551 55 332 0.9 15.6 0.01 0.04 0.04 63 1011.1
20260504224043 55 257 2.6 15.6 0.01 0.04 0.04 60 1011.4
20260504223541 57 194 6.1 13.0 0.00 0.03 0.03 55 1011.5
20260504223102 58 238 0.9 5.2 0.00 0.03 0.03 43 1011.5
20260504222541 58 0 0.9 5.2 0.00 0.03 0.03 42 1011.5
20260504222042 58 292 0.9 5.2 0.00 0.03 0.03 44 1011.6
20260504221603 58 292 0.9 5.2 0.00 0.03 0.03 46 1011.4
20260504221041 58 336 0.9 6.1 0.00 0.03 0.03 46 1011.1
20260504220542 58 325 1.7 8.7 0.00 0.03 0.03 44 1010.7
20260504220117 58 360 3.5 9.6 0.00 0.03 0.03 46 1010.2
20260504215541 58 22 4.3 10.4 0.00 0.03 0.03 46 1009.8
20260504215041 59 32 4.3 10.4 0.00 0.03 0.03 48 1009.7
20260504214549 58 355 4.3 10.4 0.00 0.03 0.03 47 1009.6
20260504214041 58 60 4.3 12.2 0.00 0.03 0.03 50 1009.8
20260504213541 58 32 5.2 16.5 0.02 0.03 0.03 50 1009.8
20260504213103 58 13 7.0 16.5 0.03 0.03 0.03 50 1010.0
20260504212542 58 33 7.8 16.5 0.03 0.03 0.03 49 1010.2
20260504212040 58 352 7.0 15.6 0.03 0.03 0.03 54 1010.0
20260504211550 57 9 5.2 14.8 0.03 0.03 0.03 55 1009.9
20260504211041 58 355 7.0 17.4 0.03 0.03 0.03 53 1010.1
20260504210541 58 14 6.1 17.4 0.03 0.03 0.03 52 1010.2
20260504210048 59 26 6.1 15.6 0.03 0.03 0.03 54 1010.1
20260504205541 58 34 6.1 21.7 0.03 0.03 0.03 55 1010.2
20260504205040 56 327 7.8 21.7 0.03 0.03 0.03 57 1010.2
20260504204601 55 34 5.2 24.3 0.03 0.03 0.03 55 1009.9
20260504204040 58 71 8.7 24.3 0.03 0.03 0.03 50 1010.3
20260504203540 63 344 13.0 20.0 0.01 0.01 0.01 36 1009.7
20260504203046 68 47 3.5 10.4 0.00 0.00 0.00 25 1010.0
20260504202540 69 336 3.5 7.8 0.00 0.00 0.00 24 1009.3
20260504202044 69 318 3.5 8.7 0.00 0.00 0.00 24 1009.2
20260504201549 68 252 4.3 13.0 0.00 0.00 0.00 26 1009.2
20260504201041 68 275 4.3 13.0 0.00 0.00 0.00 26 1009.2
20260504200544 68 208 6.1 12.2 0.00 0.00 0.00 25 1009.3
20260504195540 69 215 4.3 14.8 0.00 0.00 0.00 24 1009.3
20260504195041 69 246 4.3 15.6 0.00 0.00 0.00 24 1009.2
20260504194546 68 272 7.0 15.6 0.00 0.00 0.00 24 1009.4
20260504194041 69 216 7.8 15.6 0.00 0.00 0.00 20 1009.3
20260504193541 70 211 6.1 15.6 0.00 0.00 0.00 20 1009.2
20260504193046 70 194 2.6 13.9 0.00 0.00 0.00 20 1009.2
20260504192540 70 269 5.2 13.9 0.00 0.00 0.00 20 1009.2
20260504192041 70 229 0.9 7.0 0.00 0.00 0.00 22 1009.1
20260504191549 69 235 0.9 9.6 0.00 0.00 0.00 20 1009.1
20260504191040 69 200 1.7 11.3 0.00 0.00 0.00 20 1009.2
20260504190541 69 277 2.6 11.3 0.00 0.00 0.00 21 1009.2
20260504190049 70 313 2.6 10.4 0.00 0.00 0.00 20 1009.2
20260504185541 69 331 4.3 12.2 0.00 0.00 0.00 20 1009.3
20260504185041 70 355 5.2 12.2 0.00 0.00 0.00 20 1009.2
20260504184555 70 336 2.6 10.4 0.00 0.00 0.00 20 1009.3
20260504184041 70 355 1.7 10.4 0.00 0.00 0.00 21 1009.4
20260504183541 70 347 3.5 11.3 0.00 0.00 0.00 22 1009.5
20260504183049 69 317 3.5 11.3 0.00 0.00 0.00 21 1009.6
20260504182540 69 303 4.3 9.6 0.00 0.00 0.00 22 1009.8
20260504182040 69 226 3.5 9.6 0.00 0.00 0.00 23 1009.8
20260504181553 69 277 3.5 13.9 0.00 0.00 0.00 23 1009.9
20260504181041 69 268 2.6 13.9 0.00 0.00 0.00 23 1010.1
20260504180544 69 221 6.1 12.2 0.00 0.00 0.00 22 1010.2
20260504180044 69 253 3.5 10.4 0.00 0.00 0.00 24 1010.4
20260504175540 68 254 2.6 11.3 0.00 0.00 0.00 24 1010.4
20260504175043 68 270 6.1 13.9 0.00 0.00 0.00 25 1010.5
20260504174549 68 312 6.1 13.9 0.00 0.00 0.00 25 1010.6
20260504174040 67 168 5.2 13.0 0.00 0.00 0.00 26 1010.7
20260504173539 66 326 7.0 13.0 0.00 0.00 0.00 27 1010.9
20260504173048 65 216 5.2 12.2 0.00 0.00 0.00 28 1010.8
20260504172540 64 309 5.2 11.3 0.00 0.00 0.00 28 1011.0
20260504172041 64 205 4.3 11.3 0.00 0.00 0.00 28 1011.1
20260504171547 63 267 5.2 12.2 0.00 0.00 0.00 28 1011.1
20260504171041 63 309 5.2 12.2 0.00 0.00 0.00 28 1011.1
20260504170541 62 267 4.3 12.2 0.00 0.00 0.00 28 1011.2
20260504151042 61 286 3.5 8.7 0.00 0.00 0.00 28 1011.3
20260504150540 61 196 3.5 8.7 0.00 0.00 0.00 27 1011.3
20260504141040 59 0 0.0 4.3 0.00 0.00 0.00 26 1011.3
20260504140543 58 242 1.7 4.3 0.00 0.00 0.00 26 1011.3
20260504130544 52 288 6.1 10.4 0.00 0.00 0.00 28 1011.2
20260504110544 48 318 1.7 4.3 0.00 0.00 0.00 33 1010.9
20260504100543 47 347 0.9 7.0 0.00 0.00 0.00 33 1011.1
20260504081552 48 275 3.5 8.7 0.00 0.00 0.00 33 1011.9
20260504081043 49 297 3.5 7.8 0.00 0.00 0.00 32 1012.1
20260504080543 49 279 2.6 7.0 0.00 0.00 0.00 32 1012.2